Time,TemperatureF,DewpointF,PressureIn,WindDirection,WindDirectionDegrees,WindSpeedMPH,WindSpeedGustMPH,Humidity,HourlyPrecipIn,Conditions,Clouds,dailyrainin,SolarRadiationWatts/m^2,SoftwareType,DateUTC
2013-10-13 00:00:00,69.5,66.1,30.02,SE,135,0.0,-999.0,89,0.00,,,0.00,0,Wunderground v.1.15,2013-10-13 05:00:00,
2013-10-13 00:05:00,69.5,66.1,30.02,SE,135,0.0,-999.0,89,0.00,,,0.00,0,Wunderground v.1.15,2013-10-13 05:05:00,
2013-10-13 00:10:00,69.5,66.1,30.02,SE,135,0.0,-999.0,89,0.00,,,0.00,0,Wunderground v.1.15,2013-10-13 05:10:00,
2013-10-13 00:15:00,69.5,66.1,30.02,SE,135,0.0,-999.0,89,0.00,,,0.00,0,Wunderground v.1.15,2013-10-13 05:15:00,
2013-10-13 00:20:00,69.5,66.1,30.02,SE,135,0.0,-999.0,89,0.00,,,0.00,0,Wunderground v.1.15,2013-10-13 05:20:00,
2013-10-13 00:25:00,69.5,66.1,30.02,SE,135,0.0,-999.0,89,0.00,,,0.00,0,Wunderground v.1.15,2013-10-13 05:25:00,
2013-10-13 00:30:00,69.5,66.1,30.02,SE,135,0.0,-999.0,89,0.00,,,0.00,0,Wunderground v.1.15,2013-10-13 05:30:00,
2013-10-13 00:35:00,69.5,66.1,30.02,SE,135,0.0,-999.0,89,0.00,,,0.00,0,Wunderground v.1.15,2013-10-13 05:35:00,
2013-10-13 00:40:00,69.5,66.1,30.02,SE,135,0.0,-999.0,89,0.00,,,0.00,0,Wunderground v.1.15,2013-10-13 05:40:00,
2013-10-13 00:45:00,69.5,66.1,30.03,SE,135,0.0,-999.0,89,0.00,,,0.00,0,Wunderground v.1.15,2013-10-13 05:45:00,
2013-10-13 00:50:00,69.5,66.1,30.03,SE,135,0.0,-999.0,89,0.00,,,0.00,0,Wunderground v.1.15,2013-10-13 05:50:00,
2013-10-13 00:55:00,69.5,66.1,30.03,SE,135,0.0,-999.0,89,0.00,,,0.00,0,Wunderground v.1.15,2013-10-13 05:55:00,
2013-10-13 01:00:00,69.5,66.1,30.03,SE,135,0.0,-999.0,89,0.00,,,0.00,0,Wunderground v.1.15,2013-10-13 06:00:00,
2013-10-13 01:05:00,69.5,66.1,30.03,SE,135,0.0,-999.0,89,0.00,,,0.00,0,Wunderground v.1.15,2013-10-13 06:05:00,
2013-10-13 01:10:00,69.5,66.1,30.03,SE,135,0.0,-999.0,89,0.00,,,0.00,0,Wunderground v.1.15,2013-10-13 06:10:00,
2013-10-13 01:15:00,69.6,66.2,30.02,SE,135,0.0,-999.0,89,0.00,,,0.00,0,Wunderground v.1.15,2013-10-13 06:15:00,
2013-10-13 01:20:00,69.6,66.2,30.02,SE,135,0.0,-999.0,89,0.00,,,0.00,0,Wunderground v.1.15,2013-10-13 06:20:00,
2013-10-13 01:25:00,69.6,66.2,30.02,SE,135,0.0,-999.0,89,0.00,,,0.00,0,Wunderground v.1.15,2013-10-13 06:25:00,
2013-10-13 01:30:00,69.6,66.2,30.02,SE,135,0.0,-999.0,89,0.00,,,0.00,0,Wunderground v.1.15,2013-10-13 06:30:00,
2013-10-13 01:35:00,69.6,66.2,30.02,SE,135,0.0,-999.0,89,0.00,,,0.00,0,Wunderground v.1.15,2013-10-13 06:35:00,
2013-10-13 01:40:00,69.6,66.2,30.02,SE,135,0.0,-999.0,89,0.00,,,0.00,0,Wunderground v.1.15,2013-10-13 06:40:00,
2013-10-13 01:45:00,68.6,65.9,30.02,N/A,-737280,0.0,-999.0,91,0.00,,,0.00,0,Wunderground v.1.15,2013-10-13 06:45:00,
2013-10-13 01:50:00,68.6,65.9,30.02,N/A,-737280,0.0,-999.0,91,0.00,,,0.00,0,Wunderground v.1.15,2013-10-13 06:50:00,
2013-10-13 01:55:00,68.6,65.9,30.02,N/A,-737280,0.0,-999.0,91,0.00,,,0.00,0,Wunderground v.1.15,2013-10-13 06:55:00,
2013-10-13 02:00:00,68.6,65.9,30.02,N/A,-737280,0.0,-999.0,91,0.00,,,0.00,0,Wunderground v.1.15,2013-10-13 07:00:00,
2013-10-13 02:05:00,68.6,65.9,30.02,N/A,-737280,0.0,-999.0,91,0.00,,,0.00,0,Wunderground v.1.15,2013-10-13 07:05:00,
2013-10-13 02:10:00,68.6,65.9,30.02,N/A,-737280,0.0,-999.0,91,0.00,,,0.00,0,Wunderground v.1.15,2013-10-13 07:10:00,
2013-10-13 02:15:00,68.1,65.4,30.02,N/A,-737280,0.0,-999.0,91,0.00,,,0.00,0,Wunderground v.1.15,2013-10-13 07:15:00,
2013-10-13 02:20:00,68.1,65.4,30.02,N/A,-737280,0.0,-999.0,91,0.00,,,0.00,0,Wunderground v.1.15,2013-10-13 07:20:00,
2013-10-13 02:25:00,68.1,65.4,30.02,N/A,-737280,0.0,-999.0,91,0.00,,,0.00,0,Wunderground v.1.15,2013-10-13 07:25:00,
2013-10-13 02:30:00,68.1,65.4,30.02,N/A,-737280,0.0,-999.0,91,0.00,,,0.00,0,Wunderground v.1.15,2013-10-13 07:30:00,
2013-10-13 02:35:00,68.1,65.4,30.02,N/A,-737280,0.0,-999.0,91,0.00,,,0.00,0,Wunderground v.1.15,2013-10-13 07:35:00,
2013-10-13 02:40:00,68.1,65.4,30.02,N/A,-737280,0.0,-999.0,91,0.00,,,0.00,0,Wunderground v.1.15,2013-10-13 07:40:00,
2013-10-13 02:45:00,68.2,65.8,30.04,N/A,-737280,0.0,-999.0,92,0.00,,,0.00,0,Wunderground v.1.15,2013-10-13 07:45:00,
2013-10-13 02:50:00,68.2,65.8,30.04,N/A,-737280,0.0,-999.0,92,0.00,,,0.00,0,Wunderground v.1.15,2013-10-13 07:50:00,
2013-10-13 02:55:00,68.2,65.8,30.04,N/A,-737280,0.0,-999.0,92,0.00,,,0.00,0,Wunderground v.1.15,2013-10-13 07:55:00,
2013-10-13 03:00:00,68.2,65.8,30.04,N/A,-737280,0.0,-999.0,92,0.00,,,0.00,0,Wunderground v.1.15,2013-10-13 08:00:00,
2013-10-13 03:05:00,68.2,65.8,30.04,N/A,-737280,0.0,-999.0,92,0.00,,,0.00,0,Wunderground v.1.15,2013-10-13 08:05:00,
2013-10-13 03:10:00,68.2,65.8,30.04,N/A,-737280,0.0,-999.0,92,0.00,,,0.00,0,Wunderground v.1.15,2013-10-13 08:10:00,
2013-10-13 03:15:00,69.0,65.9,30.05,SE,135,0.0,-999.0,90,0.00,,,0.00,0,Wunderground v.1.15,2013-10-13 08:15:00,
2013-10-13 03:20:00,69.0,65.9,30.05,SE,135,0.0,-999.0,90,0.00,,,0.00,0,Wunderground v.1.15,2013-10-13 08:20:00,
2013-10-13 03:25:00,69.0,65.9,30.05,SE,135,0.0,-999.0,90,0.00,,,0.00,0,Wunderground v.1.15,2013-10-13 08:25:00,
2013-10-13 03:30:00,69.0,65.9,30.05,SE,135,0.0,-999.0,90,0.00,,,0.00,0,Wunderground v.1.15,2013-10-13 08:30:00,
2013-10-13 03:35:00,69.0,65.9,30.05,SE,135,0.0,-999.0,90,0.00,,,0.00,0,Wunderground v.1.15,2013-10-13 08:35:00,
2013-10-13 03:40:00,69.0,65.9,30.05,SE,135,0.0,-999.0,90,0.00,,,0.00,0,Wunderground v.1.15,2013-10-13 08:40:00,
2013-10-13 03:45:00,69.5,66.4,30.05,SE,135,0.0,-999.0,90,0.00,,,0.00,0,Wunderground v.1.15,2013-10-13 08:45:00,
2013-10-13 03:50:00,69.5,66.4,30.05,SE,135,0.0,-999.0,90,0.00,,,0.00,0,Wunderground v.1.15,2013-10-13 08:50:00,
2013-10-13 03:55:00,69.5,66.4,30.05,SE,135,0.0,-999.0,90,0.00,,,0.00,0,Wunderground v.1.15,2013-10-13 08:55:00,
2013-10-13 04:00:00,69.5,66.4,30.05,SE,135,0.0,-999.0,90,0.00,,,0.00,0,Wunderground v.1.15,2013-10-13 09:00:00,
2013-10-13 04:05:00,69.5,66.4,30.05,SE,135,0.0,-999.0,90,0.00,,,0.00,0,Wunderground v.1.15,2013-10-13 09:05:00,
2013-10-13 04:10:00,69.5,66.4,30.05,SE,135,0.0,-999.0,90,0.00,,,0.00,0,Wunderground v.1.15,2013-10-13 09:10:00,
2013-10-13 04:15:00,69.9,66.5,30.04,N/A,-737280,0.0,-999.0,89,0.00,,,0.00,0,Wunderground v.1.15,2013-10-13 09:15:00,
2013-10-13 04:20:00,69.9,66.5,30.04,N/A,-737280,0.0,-999.0,89,0.00,,,0.00,0,Wunderground v.1.15,2013-10-13 09:20:00,
2013-10-13 04:25:00,69.9,66.5,30.04,N/A,-737280,0.0,-999.0,89,0.00,,,0.00,0,Wunderground v.1.15,2013-10-13 09:25:00,
2013-10-13 04:30:00,69.9,66.5,30.04,N/A,-737280,0.0,-999.0,89,0.00,,,0.00,0,Wunderground v.1.15,2013-10-13 09:30:00,
2013-10-13 04:35:00,69.9,66.5,30.04,N/A,-737280,0.0,-999.0,89,0.00,,,0.00,0,Wunderground v.1.15,2013-10-13 09:35:00,
2013-10-13 04:40:00,69.9,66.5,30.04,N/A,-737280,0.0,-999.0,89,0.00,,,0.00,0,Wunderground v.1.15,2013-10-13 09:40:00,
2013-10-13 04:45:00,70.2,66.8,30.04,ESE,113,1.0,-999.0,89,0.00,,,0.00,0,Wunderground v.1.15,2013-10-13 09:45:00,
2013-10-13 04:50:00,70.2,66.8,30.04,ESE,113,1.0,-999.0,89,0.00,,,0.00,0,Wunderground v.1.15,2013-10-13 09:50:00,
2013-10-13 04:55:00,70.2,66.8,30.04,ESE,113,1.0,-999.0,89,0.00,,,0.00,0,Wunderground v.1.15,2013-10-13 09:55:00,
2013-10-13 05:00:00,70.2,66.8,30.04,ESE,113,1.0,-999.0,89,0.00,,,0.00,0,Wunderground v.1.15,2013-10-13 10:00:00,
2013-10-13 05:05:00,70.2,66.8,30.04,ESE,113,1.0,-999.0,89,0.00,,,0.00,0,Wunderground v.1.15,2013-10-13 10:05:00,
2013-10-13 05:10:00,70.2,66.8,30.04,ESE,113,1.0,-999.0,89,0.00,,,0.00,0,Wunderground v.1.15,2013-10-13 10:10:00,
2013-10-13 05:15:00,70.0,66.6,30.04,ESE,113,1.0,-999.0,89,0.00,,,0.00,0,Wunderground v.1.15,2013-10-13 10:15:00,
2013-10-13 05:20:00,70.0,66.6,30.04,ESE,113,1.0,-999.0,89,0.00,,,0.00,0,Wunderground v.1.15,2013-10-13 10:20:00,
2013-10-13 05:25:00,70.0,66.6,30.04,ESE,113,1.0,-999.0,89,0.00,,,0.00,0,Wunderground v.1.15,2013-10-13 10:25:00,
2013-10-13 05:30:00,70.0,66.6,30.04,ESE,113,1.0,-999.0,89,0.00,,,0.00,0,Wunderground v.1.15,2013-10-13 10:30:00,
2013-10-13 05:35:00,70.0,66.6,30.04,ESE,113,1.0,-999.0,89,0.00,,,0.00,0,Wunderground v.1.15,2013-10-13 10:35:00,
2013-10-13 05:40:00,70.0,66.6,30.04,ESE,113,1.0,-999.0,89,0.00,,,0.00,0,Wunderground v.1.15,2013-10-13 10:40:00,
2013-10-13 05:45:00,69.7,66.6,30.04,ESE,113,1.0,-999.0,90,0.00,,,0.00,0,Wunderground v.1.15,2013-10-13 10:45:00,
2013-10-13 05:50:00,69.7,66.6,30.04,ESE,113,1.0,-999.0,90,0.00,,,0.00,0,Wunderground v.1.15,2013-10-13 10:50:00,
2013-10-13 05:55:00,69.7,66.6,30.04,ESE,113,1.0,-999.0,90,0.00,,,0.00,0,Wunderground v.1.15,2013-10-13 10:55:00,
2013-10-13 06:00:00,69.7,66.6,30.04,ESE,113,1.0,-999.0,90,0.00,,,0.00,0,Wunderground v.1.15,2013-10-13 11:00:00,
2013-10-13 06:05:00,69.7,66.6,30.04,ESE,113,1.0,-999.0,90,0.00,,,0.00,0,Wunderground v.1.15,2013-10-13 11:05:00,
2013-10-13 06:10:00,69.7,66.6,30.04,ESE,113,1.0,-999.0,90,0.00,,,0.00,0,Wunderground v.1.15,2013-10-13 11:10:00,
2013-10-13 06:15:00,69.2,66.5,30.06,ESE,113,0.0,-999.0,91,0.00,,,0.00,0,Wunderground v.1.15,2013-10-13 11:15:00,
2013-10-13 06:20:00,69.2,66.5,30.06,ESE,113,0.0,-999.0,91,0.00,,,0.00,0,Wunderground v.1.15,2013-10-13 11:20:00,
2013-10-13 06:25:00,69.2,66.5,30.06,ESE,113,0.0,-999.0,91,0.00,,,0.00,0,Wunderground v.1.15,2013-10-13 11:25:00,
2013-10-13 06:30:00,69.2,66.5,30.06,ESE,113,0.0,-999.0,91,0.00,,,0.00,0,Wunderground v.1.15,2013-10-13 11:30:00,
2013-10-13 06:35:00,69.2,66.5,30.06,ESE,113,0.0,-999.0,91,0.00,,,0.00,0,Wunderground v.1.15,2013-10-13 11:35:00,
2013-10-13 06:40:00,69.2,66.5,30.06,ESE,113,0.0,-999.0,91,0.00,,,0.00,0,Wunderground v.1.15,2013-10-13 11:40:00,
2013-10-13 06:45:00,68.8,66.4,30.07,ESE,113,0.0,-999.0,92,0.00,,,0.00,0,Wunderground v.1.15,2013-10-13 11:45:00,
2013-10-13 06:50:00,68.8,66.4,30.07,ESE,113,0.0,-999.0,92,0.00,,,0.00,0,Wunderground v.1.15,2013-10-13 11:50:00,
2013-10-13 06:55:00,68.8,66.4,30.07,ESE,113,0.0,-999.0,92,0.00,,,0.00,0,Wunderground v.1.15,2013-10-13 11:55:00,
2013-10-13 07:00:00,68.8,66.4,30.07,ESE,113,0.0,-999.0,92,0.00,,,0.00,0,Wunderground v.1.15,2013-10-13 12:00:00,
2013-10-13 07:05:00,68.8,66.4,30.07,ESE,113,0.0,-999.0,92,0.00,,,0.00,0,Wunderground v.1.15,2013-10-13 12:05:00,
2013-10-13 07:10:00,68.8,66.4,30.07,ESE,113,0.0,-999.0,92,0.00,,,0.00,0,Wunderground v.1.15,2013-10-13 12:10:00,
2013-10-13 07:15:00,68.6,66.5,30.08,ESE,113,0.0,-999.0,93,0.00,,,0.00,0,Wunderground v.1.15,2013-10-13 12:15:00,
2013-10-13 07:20:00,68.6,66.5,30.08,ESE,113,0.0,-999.0,93,0.00,,,0.00,0,Wunderground v.1.15,2013-10-13 12:20:00,
2013-10-13 07:25:00,68.6,66.5,30.08,ESE,113,0.0,-999.0,93,0.00,,,0.00,0,Wunderground v.1.15,2013-10-13 12:25:00,
2013-10-13 07:30:00,68.6,66.5,30.08,ESE,113,0.0,-999.0,93,0.00,,,0.00,0,Wunderground v.1.15,2013-10-13 12:30:00,
2013-10-13 07:35:00,68.6,66.5,30.08,ESE,113,0.0,-999.0,93,0.00,,,0.00,0,Wunderground v.1.15,2013-10-13 12:35:00,
2013-10-13 07:40:00,68.6,66.5,30.08,ESE,113,0.0,-999.0,93,0.00,,,0.00,0,Wunderground v.1.15,2013-10-13 12:40:00,
2013-10-13 07:45:00,69.1,67.0,30.10,ESE,113,0.0,-999.0,93,0.00,,,0.00,8,Wunderground v.1.15,2013-10-13 12:45:00,
2013-10-13 07:50:00,69.1,67.0,30.10,ESE,113,0.0,-999.0,93,0.00,,,0.00,8,Wunderground v.1.15,2013-10-13 12:50:00,
2013-10-13 07:55:00,69.1,67.0,30.10,ESE,113,0.0,-999.0,93,0.00,,,0.00,8,Wunderground v.1.15,2013-10-13 12:55:00,
2013-10-13 08:00:00,69.1,67.0,30.10,ESE,113,0.0,-999.0,93,0.00,,,0.00,8,Wunderground v.1.15,2013-10-13 13:00:00,
2013-10-13 08:05:00,69.1,67.0,30.10,ESE,113,0.0,-999.0,93,0.00,,,0.00,8,Wunderground v.1.15,2013-10-13 13:05:00,
2013-10-13 08:10:00,69.1,67.0,30.10,ESE,113,0.0,-999.0,93,0.00,,,0.00,8,Wunderground v.1.15,2013-10-13 13:10:00,
2013-10-13 08:15:00,69.7,67.3,30.11,ESE,113,1.0,-999.0,92,0.00,,,0.00,45,Wunderground v.1.15,2013-10-13 13:15:00,
2013-10-13 08:20:00,69.7,67.3,30.11,ESE,113,1.0,-999.0,92,0.00,,,0.00,45,Wunderground v.1.15,2013-10-13 13:20:00,
2013-10-13 08:25:00,69.7,67.3,30.11,ESE,113,1.0,-999.0,92,0.00,,,0.00,45,Wunderground v.1.15,2013-10-13 13:25:00,
2013-10-13 08:30:00,69.7,67.3,30.11,ESE,113,1.0,-999.0,92,0.00,,,0.00,45,Wunderground v.1.15,2013-10-13 13:30:00,
2013-10-13 08:35:00,69.7,67.3,30.11,ESE,113,1.0,-999.0,92,0.00,,,0.00,45,Wunderground v.1.15,2013-10-13 13:35:00,
2013-10-13 08:40:00,69.7,67.3,30.11,ESE,113,1.0,-999.0,92,0.00,,,0.00,45,Wunderground v.1.15,2013-10-13 13:40:00,
2013-10-13 08:45:00,69.8,67.1,30.13,ESE,113,2.0,-999.0,91,0.00,,,0.00,45,Wunderground v.1.15,2013-10-13 13:45:00,
2013-10-13 08:50:00,69.8,67.1,30.13,ESE,113,2.0,-999.0,91,0.00,,,0.00,45,Wunderground v.1.15,2013-10-13 13:50:00,
2013-10-13 09:05:00,69.8,67.1,30.13,ESE,113,2.0,-999.0,91,0.00,,,0.00,45,Wunderground v.1.15,2013-10-13 14:05:00,
2013-10-13 09:10:00,69.8,67.1,30.13,ESE,113,2.0,-999.0,91,0.00,,,0.00,45,Wunderground v.1.15,2013-10-13 14:10:00,
2013-10-13 09:15:00,70.9,67.8,30.14,SE,135,1.0,-999.0,90,0.00,,,0.00,99,Wunderground v.1.15,2013-10-13 14:15:00,
2013-10-13 09:20:00,70.9,67.8,30.14,SE,135,1.0,-999.0,90,0.00,,,0.00,99,Wunderground v.1.15,2013-10-13 14:20:00,
2013-10-13 09:25:00,70.9,67.8,30.14,SE,135,1.0,-999.0,90,0.00,,,0.00,99,Wunderground v.1.15,2013-10-13 14:25:00,
2013-10-13 09:30:00,70.9,67.8,30.14,SE,135,1.0,-999.0,90,0.00,,,0.00,99,Wunderground v.1.15,2013-10-13 14:30:00,
2013-10-13 09:35:00,70.9,67.8,30.14,SE,135,1.0,-999.0,90,0.00,,,0.00,99,Wunderground v.1.15,2013-10-13 14:35:00,
2013-10-13 09:40:00,70.9,67.8,30.14,SE,135,1.0,-999.0,90,0.00,,,0.00,99,Wunderground v.1.15,2013-10-13 14:40:00,
2013-10-13 09:45:00,71.9,67.8,30.15,SE,135,2.0,-999.0,87,0.00,,,0.00,137,Wunderground v.1.15,2013-10-13 14:45:00,
2013-10-13 09:50:00,71.9,67.8,30.15,SE,135,2.0,-999.0,87,0.00,,,0.00,137,Wunderground v.1.15,2013-10-13 14:50:00,
2013-10-13 09:55:00,71.9,67.8,30.15,SE,135,2.0,-999.0,87,0.00,,,0.00,137,Wunderground v.1.15,2013-10-13 14:55:00,
2013-10-13 10:00:00,71.9,67.8,30.15,SE,135,2.0,-999.0,87,0.00,,,0.00,137,Wunderground v.1.15,2013-10-13 15:00:00,
2013-10-13 10:05:00,71.9,67.8,30.15,SE,135,2.0,-999.0,87,0.00,,,0.00,137,Wunderground v.1.15,2013-10-13 15:05:00,
2013-10-13 10:10:00,71.9,67.8,30.15,SE,135,2.0,-999.0,87,0.00,,,0.00,137,Wunderground v.1.15,2013-10-13 15:10:00,
2013-10-13 10:15:00,72.1,67.3,30.15,ESE,113,3.0,-999.0,85,0.00,,,0.00,173,Wunderground v.1.15,2013-10-13 15:15:00,
2013-10-13 10:20:00,72.1,67.3,30.15,ESE,113,3.0,-999.0,85,0.00,,,0.00,173,Wunderground v.1.15,2013-10-13 15:20:00,
2013-10-13 10:25:00,72.1,67.3,30.15,ESE,113,3.0,-999.0,85,0.00,,,0.00,173,Wunderground v.1.15,2013-10-13 15:25:00,
2013-10-13 10:30:00,72.1,67.3,30.15,ESE,113,3.0,-999.0,85,0.00,,,0.00,173,Wunderground v.1.15,2013-10-13 15:30:00,
2013-10-13 10:35:00,72.1,67.3,30.15,ESE,113,3.0,-999.0,85,0.00,,,0.00,173,Wunderground v.1.15,2013-10-13 15:35:00,
2013-10-13 10:40:00,72.1,67.3,30.15,ESE,113,3.0,-999.0,85,0.00,,,0.00,173,Wunderground v.1.15,2013-10-13 15:40:00,
2013-10-13 10:45:00,72.6,67.5,30.15,ESE,113,3.0,-999.0,84,0.00,,,0.00,179,Wunderground v.1.15,2013-10-13 15:45:00,
2013-10-13 10:50:00,72.6,67.5,30.15,ESE,113,3.0,-999.0,84,0.00,,,0.00,179,Wunderground v.1.15,2013-10-13 15:50:00,
2013-10-13 10:55:00,72.6,67.5,30.15,ESE,113,3.0,-999.0,84,0.00,,,0.00,179,Wunderground v.1.15,2013-10-13 15:55:00,
2013-10-13 11:00:00,72.6,67.5,30.15,ESE,113,3.0,-999.0,84,0.00,,,0.00,179,Wunderground v.1.15,2013-10-13 16:00:00,
2013-10-13 11:05:00,72.6,67.5,30.15,ESE,113,3.0,-999.0,84,0.00,,,0.00,179,Wunderground v.1.15,2013-10-13 16:05:00,
2013-10-13 11:10:00,72.6,67.5,30.15,ESE,113,3.0,-999.0,84,0.00,,,0.00,179,Wunderground v.1.15,2013-10-13 16:10:00,
2013-10-13 11:15:00,73.0,67.9,30.16,ESE,113,3.0,-999.0,84,0.00,,,0.00,201,Wunderground v.1.15,2013-10-13 16:15:00,
2013-10-13 11:20:00,73.0,67.9,30.16,ESE,113,3.0,-999.0,84,0.00,,,0.00,201,Wunderground v.1.15,2013-10-13 16:20:00,
2013-10-13 11:25:00,73.0,67.9,30.16,ESE,113,3.0,-999.0,84,0.00,,,0.00,201,Wunderground v.1.15,2013-10-13 16:25:00,
2013-10-13 11:30:00,73.0,67.9,30.16,ESE,113,3.0,-999.0,84,0.00,,,0.00,201,Wunderground v.1.15,2013-10-13 16:30:00,
2013-10-13 11:35:00,73.0,67.9,30.16,ESE,113,3.0,-999.0,84,0.00,,,0.00,201,Wunderground v.1.15,2013-10-13 16:35:00,
2013-10-13 11:40:00,73.0,67.9,30.16,ESE,113,3.0,-999.0,84,0.00,,,0.00,201,Wunderground v.1.15,2013-10-13 16:40:00,
2013-10-13 11:45:00,74.0,68.2,30.15,ESE,113,2.0,-999.0,82,0.00,,,0.00,245,Wunderground v.1.15,2013-10-13 16:45:00,
2013-10-13 11:50:00,74.0,68.2,30.15,ESE,113,2.0,-999.0,82,0.00,,,0.00,245,Wunderground v.1.15,2013-10-13 16:50:00,
2013-10-13 11:55:00,74.0,68.2,30.15,ESE,113,2.0,-999.0,82,0.00,,,0.00,245,Wunderground v.1.15,2013-10-13 16:55:00,
2013-10-13 12:00:00,74.0,68.2,30.15,ESE,113,2.0,-999.0,82,0.00,,,0.00,245,Wunderground v.1.15,2013-10-13 17:00:00,
2013-10-13 12:05:00,74.0,68.2,30.15,ESE,113,2.0,-999.0,82,0.00,,,0.00,245,Wunderground v.1.15,2013-10-13 17:05:00,
2013-10-13 12:10:00,74.0,68.2,30.15,ESE,113,2.0,-999.0,82,0.00,,,0.00,245,Wunderground v.1.15,2013-10-13 17:10:00,
2013-10-13 12:15:00,75.3,68.0,30.13,East,90,3.0,-999.0,78,0.00,,,0.00,395,Wunderground v.1.15,2013-10-13 17:15:00,
2013-10-13 12:20:00,75.3,68.0,30.13,East,90,3.0,-999.0,78,0.00,,,0.00,395,Wunderground v.1.15,2013-10-13 17:20:00,
2013-10-13 12:25:00,75.3,68.0,30.13,East,90,3.0,-999.0,78,0.00,,,0.00,395,Wunderground v.1.15,2013-10-13 17:25:00,
2013-10-13 12:30:00,75.3,68.0,30.13,East,90,3.0,-999.0,78,0.00,,,0.00,395,Wunderground v.1.15,2013-10-13 17:30:00,
2013-10-13 12:35:00,75.3,68.0,30.13,East,90,3.0,-999.0,78,0.00,,,0.00,395,Wunderground v.1.15,2013-10-13 17:35:00,
2013-10-13 12:40:00,75.3,68.0,30.13,East,90,3.0,-999.0,78,0.00,,,0.00,395,Wunderground v.1.15,2013-10-13 17:40:00,
2013-10-13 12:45:00,75.1,68.5,30.12,East,90,3.0,-999.0,80,0.00,,,0.00,240,Wunderground v.1.15,2013-10-13 17:45:00,
2013-10-13 12:50:00,75.1,68.5,30.12,East,90,3.0,-999.0,80,0.00,,,0.00,240,Wunderground v.1.15,2013-10-13 17:50:00,
2013-10-13 12:55:00,75.1,68.5,30.12,East,90,3.0,-999.0,80,0.00,,,0.00,240,Wunderground v.1.15,2013-10-13 17:55:00,
2013-10-13 13:00:00,75.1,68.5,30.12,East,90,3.0,-999.0,80,0.00,,,0.00,240,Wunderground v.1.15,2013-10-13 18:00:00,
2013-10-13 13:05:00,75.1,68.5,30.12,East,90,3.0,-999.0,80,0.00,,,0.00,240,Wunderground v.1.15,2013-10-13 18:05:00,
2013-10-13 13:10:00,75.1,68.5,30.12,East,90,3.0,-999.0,80,0.00,,,0.00,240,Wunderground v.1.15,2013-10-13 18:10:00,
2013-10-13 13:15:00,75.4,68.1,30.10,East,90,3.0,-999.0,78,0.00,,,0.00,244,Wunderground v.1.15,2013-10-13 18:15:00,
2013-10-13 13:20:00,75.4,68.1,30.10,East,90,3.0,-999.0,78,0.00,,,0.00,244,Wunderground v.1.15,2013-10-13 18:20:00,
2013-10-13 13:25:00,75.4,68.1,30.10,East,90,3.0,-999.0,78,0.00,,,0.00,244,Wunderground v.1.15,2013-10-13 18:25:00,
2013-10-13 13:30:00,75.4,68.1,30.10,East,90,3.0,-999.0,78,0.00,,,0.00,244,Wunderground v.1.15,2013-10-13 18:30:00,
2013-10-13 13:35:00,75.4,68.1,30.10,East,90,3.0,-999.0,78,0.00,,,0.00,244,Wunderground v.1.15,2013-10-13 18:35:00,
2013-10-13 13:40:00,75.4,68.1,30.10,East,90,3.0,-999.0,78,0.00,,,0.00,244,Wunderground v.1.15,2013-10-13 18:40:00,
2013-10-13 13:45:00,75.5,68.5,30.10,East,90,3.0,-999.0,79,0.00,,,0.00,248,Wunderground v.1.15,2013-10-13 18:45:00,
2013-10-13 13:50:00,75.5,68.5,30.10,East,90,3.0,-999.0,79,0.00,,,0.00,248,Wunderground v.1.15,2013-10-13 18:50:00,
2013-10-13 13:55:00,75.5,68.5,30.10,East,90,3.0,-999.0,79,0.00,,,0.00,248,Wunderground v.1.15,2013-10-13 18:55:00,
2013-10-13 14:00:00,75.5,68.5,30.10,East,90,3.0,-999.0,79,0.00,,,0.00,248,Wunderground v.1.15,2013-10-13 19:00:00,
2013-10-13 14:05:00,75.5,68.5,30.10,East,90,3.0,-999.0,79,0.00,,,0.00,248,Wunderground v.1.15,2013-10-13 19:05:00,
2013-10-13 14:10:00,75.5,68.5,30.10,East,90,3.0,-999.0,79,0.00,,,0.00,248,Wunderground v.1.15,2013-10-13 19:10:00,
2013-10-13 14:15:00,75.8,68.8,30.08,East,90,4.0,-999.0,79,0.00,,,0.00,238,Wunderground v.1.15,2013-10-13 19:15:00,
2013-10-13 14:20:00,75.8,68.8,30.08,East,90,4.0,-999.0,79,0.00,,,0.00,238,Wunderground v.1.15,2013-10-13 19:20:00,
2013-10-13 14:25:00,75.8,68.8,30.08,East,90,4.0,-999.0,79,0.00,,,0.00,238,Wunderground v.1.15,2013-10-13 19:25:00,
2013-10-13 14:30:00,75.8,68.8,30.08,East,90,4.0,-999.0,79,0.00,,,0.00,238,Wunderground v.1.15,2013-10-13 19:30:00,
2013-10-13 14:35:00,75.8,68.8,30.08,East,90,4.0,-999.0,79,0.00,,,0.00,238,Wunderground v.1.15,2013-10-13 19:35:00,
2013-10-13 14:40:00,75.8,68.8,30.08,East,90,4.0,-999.0,79,0.00,,,0.00,238,Wunderground v.1.15,2013-10-13 19:40:00,
2013-10-13 14:45:00,75.2,68.2,30.07,ESE,113,5.0,-999.0,79,0.00,,,0.00,260,Wunderground v.1.15,2013-10-13 19:45:00,
2013-10-13 14:50:00,75.2,68.2,30.07,ESE,113,5.0,-999.0,79,0.00,,,0.00,260,Wunderground v.1.15,2013-10-13 19:50:00,
2013-10-13 14:55:00,75.2,68.2,30.07,ESE,113,5.0,-999.0,79,0.00,,,0.00,260,Wunderground v.1.15,2013-10-13 19:55:00,
2013-10-13 15:00:00,75.2,68.2,30.07,ESE,113,5.0,-999.0,79,0.00,,,0.00,260,Wunderground v.1.15,2013-10-13 20:00:00,
2013-10-13 15:05:00,75.2,68.2,30.07,ESE,113,5.0,-999.0,79,0.00,,,0.00,260,Wunderground v.1.15,2013-10-13 20:05:00,
2013-10-13 15:10:00,75.2,68.2,30.07,ESE,113,5.0,-999.0,79,0.00,,,0.00,260,Wunderground v.1.15,2013-10-13 20:10:00,
2013-10-13 15:15:00,74.7,68.5,30.07,ESE,113,4.0,-999.0,81,0.00,,,0.00,117,Wunderground v.1.15,2013-10-13 20:15:00,
2013-10-13 15:20:00,74.7,68.5,30.07,ESE,113,4.0,-999.0,81,0.00,,,0.00,117,Wunderground v.1.15,2013-10-13 20:20:00,
2013-10-13 15:25:00,74.7,68.5,30.07,ESE,113,4.0,-999.0,81,0.00,,,0.00,117,Wunderground v.1.15,2013-10-13 20:25:00,
2013-10-13 15:30:00,74.7,68.5,30.07,ESE,113,4.0,-999.0,81,0.00,,,0.00,117,Wunderground v.1.15,2013-10-13 20:30:00,
2013-10-13 15:35:00,74.7,68.5,30.07,ESE,113,4.0,-999.0,81,0.00,,,0.00,117,Wunderground v.1.15,2013-10-13 20:35:00,
2013-10-13 15:40:00,74.7,68.5,30.07,ESE,113,4.0,-999.0,81,0.00,,,0.00,117,Wunderground v.1.15,2013-10-13 20:40:00,
2013-10-13 15:45:00,75.4,69.2,30.06,ESE,113,4.0,-999.0,81,0.00,,,0.00,143,Wunderground v.1.15,2013-10-13 20:45:00,
2013-10-13 15:50:00,75.4,69.2,30.06,ESE,113,4.0,-999.0,81,0.00,,,0.00,143,Wunderground v.1.15,2013-10-13 20:50:00,
2013-10-13 15:55:00,75.4,69.2,30.06,ESE,113,4.0,-999.0,81,0.00,,,0.00,143,Wunderground v.1.15,2013-10-13 20:55:00,
2013-10-13 16:00:00,75.4,69.2,30.06,ESE,113,4.0,-999.0,81,0.00,,,0.00,143,Wunderground v.1.15,2013-10-13 21:00:00,
2013-10-13 16:05:00,75.4,69.2,30.06,ESE,113,4.0,-999.0,81,0.00,,,0.00,143,Wunderground v.1.15,2013-10-13 21:05:00,
2013-10-13 16:10:00,75.4,69.2,30.06,ESE,113,4.0,-999.0,81,0.00,,,0.00,143,Wunderground v.1.15,2013-10-13 21:10:00,
2013-10-13 16:15:00,74.7,68.8,30.07,SE,135,5.0,-999.0,82,0.00,,,0.00,121,Wunderground v.1.15,2013-10-13 21:15:00,
2013-10-13 16:20:00,74.7,68.8,30.07,SE,135,5.0,-999.0,82,0.00,,,0.00,121,Wunderground v.1.15,2013-10-13 21:20:00,
2013-10-13 16:25:00,74.7,68.8,30.07,SE,135,5.0,-999.0,82,0.00,,,0.00,121,Wunderground v.1.15,2013-10-13 21:25:00,
2013-10-13 16:30:00,74.7,68.8,30.07,SE,135,5.0,-999.0,82,0.00,,,0.00,121,Wunderground v.1.15,2013-10-13 21:30:00,
2013-10-13 16:35:00,74.7,68.8,30.07,SE,135,5.0,-999.0,82,0.00,,,0.00,121,Wunderground v.1.15,2013-10-13 21:35:00,
2013-10-13 16:40:00,74.7,68.8,30.07,SE,135,5.0,-999.0,82,0.00,,,0.00,121,Wunderground v.1.15,2013-10-13 21:40:00,
2013-10-13 16:45:00,74.4,68.2,30.06,ESE,113,5.0,-999.0,81,0.00,,,0.00,81,Wunderground v.1.15,2013-10-13 21:45:00,
2013-10-13 16:50:00,74.4,68.2,30.06,ESE,113,5.0,-999.0,81,0.00,,,0.00,81,Wunderground v.1.15,2013-10-13 21:50:00,
2013-10-13 16:55:00,74.4,68.2,30.06,ESE,113,5.0,-999.0,81,0.00,,,0.00,81,Wunderground v.1.15,2013-10-13 21:55:00,
2013-10-13 17:00:00,74.4,68.2,30.06,ESE,113,5.0,-999.0,81,0.00,,,0.00,81,Wunderground v.1.15,2013-10-13 22:00:00,
2013-10-13 17:05:00,74.4,68.2,30.06,ESE,113,5.0,-999.0,81,0.00,,,0.00,81,Wunderground v.1.15,2013-10-13 22:05:00,
2013-10-13 17:10:00,74.4,68.2,30.06,ESE,113,5.0,-999.0,81,0.00,,,0.00,81,Wunderground v.1.15,2013-10-13 22:10:00,
2013-10-13 17:15:00,74.2,68.0,30.07,ESE,113,5.0,-999.0,81,0.00,,,0.00,31,Wunderground v.1.15,2013-10-13 22:15:00,
2013-10-13 17:20:00,74.2,68.0,30.07,ESE,113,5.0,-999.0,81,0.00,,,0.00,31,Wunderground v.1.15,2013-10-13 22:20:00,
2013-10-13 17:25:00,74.2,68.0,30.07,ESE,113,5.0,-999.0,81,0.00,,,0.00,31,Wunderground v.1.15,2013-10-13 22:25:00,
2013-10-13 17:30:00,74.2,68.0,30.07,ESE,113,5.0,-999.0,81,0.00,,,0.00,31,Wunderground v.1.15,2013-10-13 22:30:00,
2013-10-13 17:35:00,74.2,68.0,30.07,ESE,113,5.0,-999.0,81,0.00,,,0.00,31,Wunderground v.1.15,2013-10-13 22:35:00,
2013-10-13 17:40:00,74.2,68.0,30.07,ESE,113,5.0,-999.0,81,0.00,,,0.00,31,Wunderground v.1.15,2013-10-13 22:40:00,
2013-10-13 17:45:00,74.1,68.3,30.07,ESE,113,3.0,-999.0,82,0.00,,,0.00,14,Wunderground v.1.15,2013-10-13 22:45:00,
2013-10-13 17:50:00,74.1,68.3,30.07,ESE,113,3.0,-999.0,82,0.00,,,0.00,14,Wunderground v.1.15,2013-10-13 22:50:00,
2013-10-13 17:55:00,74.1,68.3,30.07,ESE,113,3.0,-999.0,82,0.00,,,0.00,14,Wunderground v.1.15,2013-10-13 22:55:00,
2013-10-13 18:00:00,74.1,68.3,30.07,ESE,113,3.0,-999.0,82,0.00,,,0.00,14,Wunderground v.1.15,2013-10-13 23:00:00,
2013-10-13 18:05:00,74.1,68.3,30.07,ESE,113,3.0,-999.0,82,0.00,,,0.00,14,Wunderground v.1.15,2013-10-13 23:05:00,
2013-10-13 18:10:00,74.1,68.3,30.07,ESE,113,3.0,-999.0,82,0.00,,,0.00,14,Wunderground v.1.15,2013-10-13 23:10:00,
2013-10-13 18:15:00,73.9,68.4,30.08,ESE,113,3.0,-999.0,83,0.00,,,0.00,8,Wunderground v.1.15,2013-10-13 23:15:00,
2013-10-13 18:20:00,73.9,68.4,30.08,ESE,113,3.0,-999.0,83,0.00,,,0.00,8,Wunderground v.1.15,2013-10-13 23:20:00,
2013-10-13 18:25:00,73.9,68.4,30.08,ESE,113,3.0,-999.0,83,0.00,,,0.00,8,Wunderground v.1.15,2013-10-13 23:25:00,
2013-10-13 18:30:00,73.9,68.4,30.08,ESE,113,3.0,-999.0,83,0.00,,,0.00,8,Wunderground v.1.15,2013-10-13 23:30:00,
2013-10-13 18:35:00,73.9,68.4,30.08,ESE,113,3.0,-999.0,83,0.00,,,0.00,8,Wunderground v.1.15,2013-10-13 23:35:00,
2013-10-13 18:40:00,73.9,68.4,30.08,ESE,113,3.0,-999.0,83,0.00,,,0.00,8,Wunderground v.1.15,2013-10-13 23:40:00,
2013-10-13 18:45:00,73.5,68.0,30.09,ESE,113,2.0,-999.0,83,0.00,,,0.00,0,Wunderground v.1.15,2013-10-13 23:45:00,
2013-10-13 18:50:00,73.5,68.0,30.09,ESE,113,2.0,-999.0,83,0.00,,,0.00,0,Wunderground v.1.15,2013-10-13 23:50:00,
2013-10-13 18:55:00,73.5,68.0,30.09,ESE,113,2.0,-999.0,83,0.00,,,0.00,0,Wunderground v.1.15,2013-10-13 23:55:00,
2013-10-13 19:00:00,73.5,68.0,30.09,ESE,113,2.0,-999.0,83,0.00,,,0.00,0,Wunderground v.1.15,2013-10-14 00:00:00,
2013-10-13 19:05:00,73.5,68.0,30.09,ESE,113,2.0,-999.0,83,0.00,,,0.00,0,Wunderground v.1.15,2013-10-14 00:05:00,
2013-10-13 19:10:00,73.5,68.0,30.09,ESE,113,2.0,-999.0,83,0.00,,,0.00,0,Wunderground v.1.15,2013-10-14 00:10:00,
2013-10-13 19:15:00,73.3,68.2,30.10,ESE,113,2.0,-999.0,84,0.00,,,0.00,0,Wunderground v.1.15,2013-10-14 00:15:00,
2013-10-13 19:20:00,73.3,68.2,30.10,ESE,113,2.0,-999.0,84,0.00,,,0.00,0,Wunderground v.1.15,2013-10-14 00:20:00,
2013-10-13 19:25:00,73.3,68.2,30.10,ESE,113,2.0,-999.0,84,0.00,,,0.00,0,Wunderground v.1.15,2013-10-14 00:25:00,
2013-10-13 19:30:00,73.3,68.2,30.10,ESE,113,2.0,-999.0,84,0.00,,,0.00,0,Wunderground v.1.15,2013-10-14 00:30:00,
2013-10-13 19:35:00,73.3,68.2,30.10,ESE,113,2.0,-999.0,84,0.00,,,0.00,0,Wunderground v.1.15,2013-10-14 00:35:00,
2013-10-13 19:40:00,73.3,68.2,30.10,ESE,113,2.0,-999.0,84,0.00,,,0.00,0,Wunderground v.1.15,2013-10-14 00:40:00,
2013-10-13 19:45:00,73.1,68.0,30.11,ESE,113,3.0,-999.0,84,0.00,,,0.00,0,Wunderground v.1.15,2013-10-14 00:45:00,
2013-10-13 19:50:00,73.1,68.0,30.11,ESE,113,3.0,-999.0,84,0.00,,,0.00,0,Wunderground v.1.15,2013-10-14 00:50:00,
2013-10-13 19:55:00,73.1,68.0,30.11,ESE,113,3.0,-999.0,84,0.00,,,0.00,0,Wunderground v.1.15,2013-10-14 00:55:00,
2013-10-13 20:00:00,73.1,68.0,30.11,ESE,113,3.0,-999.0,84,0.00,,,0.00,0,Wunderground v.1.15,2013-10-14 01:00:00,
2013-10-13 20:05:00,73.1,68.0,30.11,ESE,113,3.0,-999.0,84,0.00,,,0.00,0,Wunderground v.1.15,2013-10-14 01:05:00,
2013-10-13 20:10:00,73.1,68.0,30.11,ESE,113,3.0,-999.0,84,0.00,,,0.00,0,Wunderground v.1.15,2013-10-14 01:10:00,
2013-10-13 20:15:00,72.9,67.8,30.11,ESE,113,3.0,-999.0,84,0.00,,,0.00,0,Wunderground v.1.15,2013-10-14 01:15:00,
2013-10-13 20:20:00,72.9,67.8,30.11,ESE,113,3.0,-999.0,84,0.00,,,0.00,0,Wunderground v.1.15,2013-10-14 01:20:00,
2013-10-13 20:25:00,72.9,67.8,30.11,ESE,113,3.0,-999.0,84,0.00,,,0.00,0,Wunderground v.1.15,2013-10-14 01:25:00,
2013-10-13 20:30:00,72.9,67.8,30.11,ESE,113,3.0,-999.0,84,0.00,,,0.00,0,Wunderground v.1.15,2013-10-14 01:30:00,
2013-10-13 20:35:00,72.9,67.8,30.11,ESE,113,3.0,-999.0,84,0.00,,,0.00,0,Wunderground v.1.15,2013-10-14 01:35:00,
2013-10-13 20:40:00,72.9,67.8,30.11,ESE,113,3.0,-999.0,84,0.00,,,0.00,0,Wunderground v.1.15,2013-10-14 01:40:00,
2013-10-13 20:45:00,72.8,67.7,30.12,East,90,3.0,-999.0,84,0.00,,,0.00,0,Wunderground v.1.15,2013-10-14 01:45:00,
2013-10-13 20:50:00,72.8,67.7,30.12,East,90,3.0,-999.0,84,0.00,,,0.00,0,Wunderground v.1.15,2013-10-14 01:50:00,
2013-10-13 20:55:00,72.8,67.7,30.12,East,90,3.0,-999.0,84,0.00,,,0.00,0,Wunderground v.1.15,2013-10-14 01:55:00,
2013-10-13 21:00:00,72.8,67.7,30.12,East,90,3.0,-999.0,84,0.00,,,0.00,0,Wunderground v.1.15,2013-10-14 02:00:00,
2013-10-13 21:05:00,72.8,67.7,30.12,East,90,3.0,-999.0,84,0.00,,,0.00,0,Wunderground v.1.15,2013-10-14 02:05:00,
2013-10-13 21:10:00,72.8,67.7,30.12,East,90,3.0,-999.0,84,0.00,,,0.00,0,Wunderground v.1.15,2013-10-14 02:10:00,
2013-10-13 21:15:00,72.4,67.6,30.13,East,90,3.0,-999.0,85,0.00,,,0.00,0,Wunderground v.1.15,2013-10-14 02:15:00,
2013-10-13 21:20:00,72.4,67.6,30.13,East,90,3.0,-999.0,85,0.00,,,0.00,0,Wunderground v.1.15,2013-10-14 02:20:00,
2013-10-13 21:25:00,72.4,67.6,30.13,East,90,3.0,-999.0,85,0.00,,,0.00,0,Wunderground v.1.15,2013-10-14 02:25:00,
2013-10-13 21:30:00,72.4,67.6,30.13,East,90,3.0,-999.0,85,0.00,,,0.00,0,Wunderground v.1.15,2013-10-14 02:30:00,
2013-10-13 21:35:00,72.4,67.6,30.13,East,90,3.0,-999.0,85,0.00,,,0.00,0,Wunderground v.1.15,2013-10-14 02:35:00,
2013-10-13 21:40:00,72.4,67.6,30.13,East,90,3.0,-999.0,85,0.00,,,0.00,0,Wunderground v.1.15,2013-10-14 02:40:00,
2013-10-13 21:45:00,72.1,67.0,30.12,East,90,4.0,-999.0,84,0.00,,,0.00,0,Wunderground v.1.15,2013-10-14 02:45:00,
2013-10-13 21:50:00,72.1,67.0,30.12,East,90,4.0,-999.0,84,0.00,,,0.00,0,Wunderground v.1.15,2013-10-14 02:50:00,
2013-10-13 21:55:00,72.1,67.0,30.12,East,90,4.0,-999.0,84,0.00,,,0.00,0,Wunderground v.1.15,2013-10-14 02:55:00,
2013-10-13 22:00:00,72.1,67.0,30.12,East,90,4.0,-999.0,84,0.00,,,0.00,0,Wunderground v.1.15,2013-10-14 03:00:00,
2013-10-13 22:05:00,72.1,67.0,30.12,East,90,4.0,-999.0,84,0.00,,,0.00,0,Wunderground v.1.15,2013-10-14 03:05:00,
2013-10-13 22:10:00,72.1,67.0,30.12,East,90,4.0,-999.0,84,0.00,,,0.00,0,Wunderground v.1.15,2013-10-14 03:10:00,
2013-10-13 22:15:00,71.9,66.8,30.11,East,90,3.0,-999.0,84,0.00,,,0.00,0,Wunderground v.1.15,2013-10-14 03:15:00,
2013-10-13 22:20:00,71.9,66.8,30.11,East,90,3.0,-999.0,84,0.00,,,0.00,0,Wunderground v.1.15,2013-10-14 03:20:00,
2013-10-13 22:25:00,71.9,66.8,30.11,East,90,3.0,-999.0,84,0.00,,,0.00,0,Wunderground v.1.15,2013-10-14 03:25:00,
2013-10-13 22:30:00,71.9,66.8,30.11,East,90,3.0,-999.0,84,0.00,,,0.00,0,Wunderground v.1.15,2013-10-14 03:30:00,
2013-10-13 22:35:00,71.9,66.8,30.11,East,90,3.0,-999.0,84,0.00,,,0.00,0,Wunderground v.1.15,2013-10-14 03:35:00,
2013-10-13 22:40:00,71.9,66.8,30.11,East,90,3.0,-999.0,84,0.00,,,0.00,0,Wunderground v.1.15,2013-10-14 03:40:00,
2013-10-13 22:45:00,71.8,66.7,30.11,East,90,3.0,-999.0,84,0.00,,,0.00,0,Wunderground v.1.15,2013-10-14 03:45:00,
2013-10-13 22:50:00,71.8,66.7,30.11,East,90,3.0,-999.0,84,0.00,,,0.00,0,Wunderground v.1.15,2013-10-14 03:50:00,
2013-10-13 23:00:00,71.8,66.7,30.11,East,90,3.0,-999.0,84,0.00,,,0.00,0,Wunderground v.1.15,2013-10-14 04:00:00,
2013-10-13 23:05:00,71.8,66.7,30.11,East,90,3.0,-999.0,84,0.00,,,0.00,0,Wunderground v.1.15,2013-10-14 04:05:00,
2013-10-13 23:10:00,71.8,66.7,30.11,East,90,3.0,-999.0,84,0.00,,,0.00,0,Wunderground v.1.15,2013-10-14 04:10:00,
2013-10-13 23:20:00,71.5,66.8,30.10,East,90,2.0,-999.0,85,0.00,,,0.00,0,Wunderground v.1.15,2013-10-14 04:20:00,
2013-10-13 23:25:00,71.5,66.8,30.10,East,90,2.0,-999.0,85,0.00,,,0.00,0,Wunderground v.1.15,2013-10-14 04:25:00,
2013-10-13 23:30:00,71.5,66.8,30.10,East,90,2.0,-999.0,85,0.00,,,0.00,0,Wunderground v.1.15,2013-10-14 04:30:00,
2013-10-13 23:35:00,71.5,66.8,30.10,East,90,2.0,-999.0,85,0.00,,,0.00,0,Wunderground v.1.15,2013-10-14 04:35:00,
2013-10-13 23:40:00,71.5,66.8,30.10,East,90,2.0,-999.0,85,0.00,,,0.00,0,Wunderground v.1.15,2013-10-14 04:40:00,
2013-10-13 23:50:00,71.4,66.7,30.09,East,90,3.0,-999.0,85,0.00,,,0.00,0,Wunderground v.1.15,2013-10-14 04:50:00,
2013-10-13 23:55:00,71.4,66.7,30.09,East,90,3.0,-999.0,85,0.00,,,0.00,0,Wunderground v.1.15,2013-10-14 04:55:00,